| time (UTC) | temp F | wind direction | speed MPH | gust MPH | rain 1hr in | rain 24hr in | rain mn in | humidity % | barometer mb |
| 20260506003704 | 68 | 203 | 3.0 | 7.0 | 0.00 | 0.00 | 0.00 | 64 | 1014.9 |
| 20260506003204 | 68 | 276 | 2.0 | 8.0 | 0.00 | 0.00 | 0.00 | 64 | 1014.9 |
| 20260506000205 | 67 | 291 | 2.0 | 7.0 | 0.00 | 0.00 | 0.00 | 64 | 1015.2 |
| 20260505233704 | 66 | 173 | 1.0 | 3.0 | 0.00 | 0.00 | 0.00 | 66 | 1015.5 |
| 20260505233204 | 67 | 271 | 1.0 | 6.0 | 0.00 | 0.00 | 0.00 | 66 | 1015.5 |
| 20260505230704 | 64 | 291 | 3.0 | 7.0 | 0.00 | 0.00 | 0.00 | 70 | 1015.5 |
| 20260505230204 | 64 | 234 | 3.0 | 7.0 | 0.00 | 0.00 | 0.00 | 69 | 1015.6 |
| 20260505223704 | 63 | 170 | 2.0 | 6.0 | 0.00 | 0.00 | 0.00 | 71 | 1015.8 |
| 20260505223204 | 63 | 200 | 2.0 | 8.0 | 0.00 | 0.00 | 0.00 | 71 | 1015.9 |
| 20260505220704 | 63 | 149 | 2.0 | 7.0 | 0.00 | 0.00 | 0.00 | 71 | 1016.1 |
| 20260505220203 | 63 | 213 | 1.0 | 7.0 | 0.00 | 0.00 | 0.00 | 73 | 1016.1 |
| 20260505213704 | 62 | 174 | 2.0 | 5.0 | 0.00 | 0.00 | 0.00 | 73 | 1016.3 |
| 20260505213205 | 62 | 274 | 2.0 | 7.0 | 0.00 | 0.00 | 0.00 | 73 | 1016.2 |
| 20260505210703 | 61 | 257 | 1.0 | 3.0 | 0.00 | 0.00 | 0.00 | 74 | 1016.2 |
| 20260505210204 | 61 | 132 | 3.0 | 9.0 | 0.00 | 0.00 | 0.00 | 74 | 1016.2 |
| 20260505203705 | 61 | 159 | 2.0 | 6.0 | 0.00 | 0.00 | 0.00 | 75 | 1016.4 |
| 20260505203204 | 61 | 263 | 1.0 | 10.0 | 0.00 | 0.00 | 0.00 | 75 | 1016.3 |
| 20260505200704 | 60 | 239 | 3.0 | 7.0 | 0.00 | 0.00 | 0.00 | 77 | 1016.3 |
| 20260505200204 | 60 | 227 | 2.0 | 7.0 | 0.00 | 0.00 | 0.00 | 77 | 1016.3 |
| 20260505193704 | 60 | 242 | 2.0 | 5.0 | 0.00 | 0.00 | 0.00 | 78 | 1016.3 |
| 20260505193204 | 59 | 244 | 4.0 | 12.0 | 0.00 | 0.00 | 0.00 | 78 | 1016.3 |
| 20260505190704 | 59 | 207 | 2.0 | 5.0 | 0.00 | 0.00 | 0.00 | 78 | 1016.3 |
| 20260505183704 | 59 | 266 | 2.0 | 5.0 | 0.00 | 0.00 | 0.00 | 79 | 1016.2 |
| 20260505183204 | 59 | 196 | 2.0 | 6.0 | 0.00 | 0.00 | 0.00 | 79 | 1016.2 |
| 20260505180204 | 58 | 239 | 1.0 | 7.0 | 0.00 | 0.00 | 0.00 | 80 | 1016.1 |
| 20260505173705 | 58 | 217 | 2.0 | 3.0 | 0.00 | 0.00 | 0.00 | 80 | 1016.1 |
| 20260505173204 | 58 | 245 | 2.0 | 6.0 | 0.00 | 0.00 | 0.00 | 80 | 1016.0 |
| 20260505170704 | 58 | 182 | 3.0 | 8.0 | 0.00 | 0.00 | 0.00 | 80 | 1015.9 |
| 20260505170204 | 58 | 125 | 3.0 | 7.0 | 0.00 | 0.00 | 0.00 | 79 | 1015.9 |
| 20260505163704 | 58 | 198 | 2.0 | 6.0 | 0.00 | 0.00 | 0.00 | 81 | 1015.8 |
| 20260505163204 | 58 | 148 | 2.0 | 7.0 | 0.00 | 0.00 | 0.00 | 81 | 1015.8 |
| 20260505160203 | 57 | 103 | 2.0 | 10.0 | 0.00 | 0.00 | 0.00 | 81 | 1015.5 |
| 20260505153204 | 57 | 157 | 2.0 | 8.0 | 0.00 | 0.00 | 0.00 | 82 | 1015.6 |
| 20260505150203 | 57 | 179 | 1.0 | 6.0 | 0.00 | 0.00 | 0.00 | 82 | 1015.4 |
| 20260505130204 | 57 | 162 | 2.0 | 8.0 | 0.00 | 0.00 | 0.00 | 83 | 1014.2 |
| 20260505123703 | 57 | 175 | 3.0 | 8.0 | 0.00 | 0.00 | 0.00 | 83 | 1014.0 |
| 20260505120704 | 56 | 187 | 3.0 | 7.0 | 0.00 | 0.00 | 0.00 | 83 | 1013.9 |
| 20260505120204 | 56 | 158 | 3.0 | 9.0 | 0.00 | 0.00 | 0.00 | 83 | 1013.9 |
| 20260505113704 | 56 | 163 | 4.0 | 9.0 | 0.00 | 0.00 | 0.00 | 83 | 1013.9 |
| 20260505113204 | 56 | 161 | 2.0 | 9.0 | 0.00 | 0.00 | 0.00 | 83 | 1013.8 |
| 20260505110704 | 56 | 212 | 2.0 | 8.0 | 0.00 | 0.00 | 0.00 | 84 | 1013.7 |
| 20260505110203 | 56 | 163 | 4.0 | 7.0 | 0.00 | 0.00 | 0.00 | 84 | 1013.7 |
| 20260505100703 | 56 | 202 | 3.0 | 7.0 | 0.00 | 0.00 | 0.00 | 84 | 1013.3 |
| 20260505100204 | 56 | 193 | 2.0 | 9.0 | 0.00 | 0.00 | 0.00 | 84 | 1013.3 |
| 20260505093704 | 57 | 225 | 1.0 | 5.0 | 0.00 | 0.00 | 0.00 | 84 | 1013.1 |
| 20260505090704 | 56 | 167 | 2.0 | 3.0 | 0.00 | 0.00 | 0.00 | 84 | 1012.9 |
| 20260505090204 | 56 | 182 | 2.0 | 8.0 | 0.00 | 0.00 | 0.00 | 84 | 1012.9 |
| 20260505083703 | 56 | 175 | 2.0 | 3.0 | 0.00 | 0.00 | 0.00 | 84 | 1012.8 |
| 20260505083204 | 56 | 174 | 2.0 | 9.0 | 0.00 | 0.00 | 0.00 | 84 | 1012.8 |
| 20260505080704 | 57 | 155 | 1.0 | 3.0 | 0.00 | 0.00 | 0.00 | 83 | 1012.7 |
| 20260505080203 | 57 | 242 | 2.0 | 8.0 | 0.00 | 0.00 | 0.00 | 83 | 1012.7 |
| 20260505073704 | 57 | 172 | 2.0 | 7.0 | 0.00 | 0.00 | 0.00 | 82 | 1012.5 |
| 20260505073204 | 57 | 140 | 1.0 | 5.0 | 0.00 | 0.00 | 0.00 | 82 | 1012.4 |
| 20260505070204 | 58 | 163 | 1.0 | 7.0 | 0.00 | 0.00 | 0.00 | 82 | 1012.1 |
| 20260505063704 | 58 | 201 | 2.0 | 5.0 | 0.00 | 0.00 | 0.00 | 81 | 1011.8 |
| 20260505063203 | 58 | 161 | 2.0 | 10.0 | 0.00 | 0.00 | 0.00 | 80 | 1011.9 |
| 20260505060704 | 58 | 219 | 2.0 | 5.0 | 0.00 | 0.00 | 0.00 | 80 | 1011.6 |
| 20260505060204 | 58 | 191 | 2.0 | 9.0 | 0.00 | 0.00 | 0.00 | 80 | 1011.6 |
| 20260505053704 | 59 | 170 | 5.0 | 10.0 | 0.00 | 0.00 | 0.00 | 78 | 1011.4 |
| 20260505053205 | 60 | 198 | 2.0 | 9.0 | 0.00 | 0.00 | 0.00 | 78 | 1011.3 |
| 20260505050204 | 62 | 186 | 1.0 | 8.0 | 0.00 | 0.00 | 0.00 | 75 | 1011.1 |
| 20260505040204 | 66 | 158 | 3.0 | 9.0 | 0.00 | 0.00 | 0.00 | 67 | 1010.1 |
| 20260505033704 | 68 | 202 | 3.0 | 6.0 | 0.00 | 0.00 | 0.00 | 63 | 1009.7 |
| 20260505033205 | 69 | 208 | 3.0 | 10.0 | 0.00 | 0.00 | 0.00 | 63 | 1009.6 |
| 20260505030704 | 71 | 209 | 4.0 | 10.0 | 0.00 | 0.00 | 0.00 | 59 | 1009.2 |
| 20260505030204 | 72 | 199 | 2.0 | 10.0 | 0.00 | 0.00 | 0.00 | 58 | 1009.2 |
| 20260505023204 | 76 | 245 | 3.0 | 9.0 | 0.00 | 0.00 | 0.00 | 52 | 1009.0 |
| 20260505020204 | 79 | 244 | 3.0 | 9.0 | 0.00 | 0.00 | 0.00 | 50 | 1008.9 |
| 20260505013704 | 80 | 215 | 3.0 | 8.0 | 0.00 | 0.00 | 0.00 | 48 | 1008.9 |
| 20260505013204 | 80 | 220 | 3.0 | 12.0 | 0.00 | 0.00 | 0.00 | 47 | 1008.9 |